Location: North Smoke Tower Site
(30.5430°N, 82.3390°W)
Time: 03:35:42
(UTC-05:00)

Cosmos 1980 Rocket - Visible Passes

Search period start: 23 November 2014 00:00
Search period end: 03 December 2014 00:00
Orbit: 830 x 850 km, 71.0° (Epoch: 22 November)

Date Brightness Start Highest point End Pass type
(mag) Time Alt. Az. Time Alt. Az. Time Alt. Az.
23 Nov 3.1 18:37:36 10° N 18:42:03 24° ENE 18:42:15 24° ENE visible
23 Nov 3.9 20:21:00 10° NW 20:24:11 28° WNW 20:24:11 28° WNW visible
24 Nov 3.2 18:22:07 10° NNE 18:26:24 22° ENE 18:30:02 12° ESE visible
24 Nov 3.4 20:05:20 10° NW 20:10:27 38° WSW 20:12:09 31° SW visible
25 Nov 3.3 18:06:39 10° NNE 18:10:46 21° ENE 18:14:52 10° ESE visible
25 Nov 3.3 19:49:40 10° NW 19:54:52 41° WSW 20:00:03 10° S visible
26 Nov 3.4 17:51:12 10° NNE 17:55:08 19° ENE 17:59:02 10° ESE visible
26 Nov 3.2 19:34:00 10° NW 19:39:17 45° WSW 19:44:33 10° S visible
27 Nov 3.1 19:18:21 10° NNW 19:23:42 48° WSW 19:29:01 10° S visible
28 Nov 3.0 19:02:43 10° NNW 19:08:07 52° WSW 19:13:30 10° S visible
29 Nov 2.9 18:47:04 10° NNW 18:52:32 57° WSW 18:57:57 10° S visible
30 Nov 2.7 18:31:27 10° NNW 18:36:56 61° WSW 18:42:24 10° S visible
01 Dec 2.6 18:15:49 10° NNW 18:21:21 66° WSW 18:26:51 10° S visible
02 Dec 2.5 18:00:12 10° NNW 18:05:46 71° WSW 18:11:17 10° S visible
